Time,TemperatureF,DewpointF,PressureIn,WindDirection,WindDirectionDegrees,WindSpeedMPH,WindSpeedGustMPH,Humidity,HourlyPrecipIn,Conditions,Clouds,dailyrainin,SoftwareType,DateUTC
2013-03-28 00:01:00,49.0,46.0,30.04,SW,235,0.0,0.0,89,0.00,,,0.00,,2013-03-28 07:01:00,
2013-03-28 00:12:00,49.0,46.0,30.04,SW,235,0.0,0.0,89,0.00,,,0.00,,2013-03-28 07:12:00,
2013-03-28 00:22:00,50.0,47.0,30.03,SW,235,0.0,0.0,89,0.00,,,0.00,,2013-03-28 07:22:00,
2013-03-28 00:32:00,50.0,47.0,30.03,SW,235,1.0,2.0,89,0.00,,,0.00,,2013-03-28 07:32:00,
2013-03-28 00:42:00,50.0,47.0,30.03,SW,235,1.0,2.0,89,0.00,,,0.00,,2013-03-28 07:42:00,
2013-03-28 00:51:00,50.0,47.0,30.03,SW,235,0.0,1.0,89,0.00,,,0.00,,2013-03-28 07:51:00,
2013-03-28 01:02:00,50.0,47.0,30.03,SW,235,0.0,0.0,89,0.00,,,0.00,,2013-03-28 08:02:00,
2013-03-28 01:11:00,50.0,47.0,30.03,SW,235,0.0,0.0,89,0.00,,,0.00,,2013-03-28 08:11:00,
2013-03-28 01:21:00,51.0,48.0,30.03,SW,235,0.0,0.0,89,0.00,,,0.00,,2013-03-28 08:21:00,
2013-03-28 01:32:00,51.0,48.0,30.03,SW,235,0.0,0.0,90,0.00,,,0.00,,2013-03-28 08:32:00,
2013-03-28 01:41:00,51.0,48.0,30.03,SW,235,0.0,0.0,90,0.00,,,0.00,,2013-03-28 08:41:00,
2013-03-28 01:51:00,51.0,48.0,30.03,SW,235,0.0,0.0,89,0.00,,,0.00,,2013-03-28 08:51:00,
2013-03-28 02:01:00,51.0,48.0,30.04,SW,235,0.0,0.0,89,0.00,,,0.00,,2013-03-28 09:01:00,
2013-03-28 02:11:00,51.0,48.0,30.04,SW,235,0.0,0.0,89,0.00,,,0.00,,2013-03-28 09:11:00,
2013-03-28 02:22:00,51.0,48.0,30.04,SW,235,0.0,0.0,89,0.00,,,0.00,,2013-03-28 09:22:00,
2013-03-28 02:32:00,51.0,48.0,30.04,SW,235,0.0,0.0,89,0.00,,,0.00,,2013-03-28 09:32:00,
2013-03-28 02:42:00,51.0,48.0,30.04,SW,235,0.0,0.0,89,0.00,,,0.00,,2013-03-28 09:42:00,
2013-03-28 02:52:00,51.0,48.0,30.03,WSW,242,1.0,4.0,89,0.00,,,0.00,,2013-03-28 09:52:00,
2013-03-28 03:02:00,51.0,48.0,30.03,WSW,242,0.0,0.0,89,0.00,,,0.00,,2013-03-28 10:02:00,
2013-03-28 03:12:00,51.0,48.0,30.03,WSW,242,0.0,0.0,89,0.00,,,0.00,,2013-03-28 10:12:00,
2013-03-28 03:22:00,51.0,48.0,30.04,WSW,242,0.0,0.0,89,0.00,,,0.00,,2013-03-28 10:22:00,
2013-03-28 03:32:00,51.0,48.0,30.03,WSW,242,0.0,2.0,89,0.00,,,0.00,,2013-03-28 10:32:00,
2013-03-28 03:42:00,51.0,48.0,30.03,WSW,242,0.0,2.0,89,0.00,,,0.00,,2013-03-28 10:42:00,
2013-03-28 03:53:00,50.0,47.0,30.03,WSW,242,0.0,2.0,89,0.00,,,0.00,,2013-03-28 10:53:00,
2013-03-28 04:02:00,50.0,47.0,30.03,WSW,242,1.0,2.0,89,0.00,,,0.00,,2013-03-28 11:02:00,
2013-03-28 04:12:00,50.0,47.0,30.03,WSW,242,1.0,2.0,89,0.00,,,0.00,,2013-03-28 11:12:00,
2013-03-28 04:22:00,50.0,47.0,30.02,WSW,242,1.0,1.0,89,0.00,,,0.00,,2013-03-28 11:22:00,
2013-03-28 04:32:00,50.0,47.0,30.03,WSW,242,0.0,0.0,89,0.00,,,0.00,,2013-03-28 11:32:00,
2013-03-28 04:42:00,50.0,47.0,30.03,WSW,242,0.0,0.0,89,0.00,,,0.00,,2013-03-28 11:42:00,
2013-03-28 04:52:00,50.0,47.0,30.03,WSW,242,0.0,0.0,89,0.00,,,0.00,,2013-03-28 11:52:00,
2013-03-28 05:02:00,50.0,47.0,30.03,WSW,242,0.0,0.0,89,0.00,,,0.00,,2013-03-28 12:02:00,
2013-03-28 05:11:00,50.0,47.0,30.03,WSW,242,0.0,0.0,89,0.00,,,0.00,,2013-03-28 12:11:00,
2013-03-28 05:21:00,50.0,47.0,30.03,WSW,242,0.0,0.0,89,0.00,,,0.00,,2013-03-28 12:21:00,
2013-03-28 05:32:00,50.0,47.0,30.03,WSW,242,0.0,0.0,89,0.00,,,0.00,,2013-03-28 12:32:00,
2013-03-28 05:42:00,50.0,47.0,30.03,WSW,242,0.0,0.0,89,0.00,,,0.00,,2013-03-28 12:42:00,
2013-03-28 05:52:00,50.0,47.0,30.03,WSW,242,0.0,0.0,89,0.00,,,0.00,,2013-03-28 12:52:00,
2013-03-28 06:01:00,50.0,47.0,30.04,WSW,242,0.0,0.0,90,0.00,,,0.00,,2013-03-28 13:01:00,
2013-03-28 06:11:00,50.0,47.0,30.04,WSW,242,0.0,0.0,90,0.00,,,0.00,,2013-03-28 13:11:00,
2013-03-28 06:21:00,50.0,47.0,30.04,WSW,242,0.0,0.0,90,0.00,,,0.00,,2013-03-28 13:21:00,
2013-03-28 06:31:00,51.0,48.0,30.04,WSW,242,0.0,0.0,90,0.00,,,0.00,,2013-03-28 13:31:00,
2013-03-28 06:41:00,51.0,48.0,30.04,WSW,242,0.0,0.0,90,0.00,,,0.00,,2013-03-28 13:41:00,
2013-03-28 06:52:00,51.0,48.0,30.04,WSW,242,1.0,2.0,89,0.00,,,0.00,,2013-03-28 13:52:00,
2013-03-28 07:01:00,50.0,47.0,30.04,WSW,242,0.0,2.0,89,0.00,,,0.00,,2013-03-28 14:01:00,
2013-03-28 07:11:00,50.0,47.0,30.04,WSW,242,0.0,2.0,89,0.00,,,0.00,,2013-03-28 14:11:00,
2013-03-28 07:22:00,49.0,46.0,30.05,WSW,242,0.0,0.0,89,0.00,,,0.00,,2013-03-28 14:22:00,
2013-03-28 07:32:00,49.0,46.0,30.05,WSW,242,0.0,2.0,89,0.00,,,0.00,,2013-03-28 14:32:00,
2013-03-28 07:42:00,49.0,46.0,30.05,WSW,242,0.0,2.0,89,0.00,,,0.00,,2013-03-28 14:42:00,
2013-03-28 07:51:00,49.0,46.0,30.06,WSW,242,0.0,0.0,89,0.00,,,0.00,,2013-03-28 14:51:00,
2013-03-28 08:01:00,50.0,47.0,30.07,WSW,242,0.0,0.0,90,0.00,,,0.00,,2013-03-28 15:01:00,
2013-03-28 08:11:00,50.0,47.0,30.07,WSW,242,0.0,0.0,90,0.00,,,0.00,,2013-03-28 15:11:00,
2013-03-28 08:21:00,50.0,47.0,30.08,WSW,242,0.0,1.0,90,0.00,,,0.00,,2013-03-28 15:21:00,
2013-03-28 08:32:00,51.0,48.0,30.08,WSW,242,0.0,1.0,90,0.00,,,0.00,,2013-03-28 15:32:00,
2013-03-28 08:42:00,51.0,48.0,30.08,WSW,242,0.0,1.0,90,0.00,,,0.00,,2013-03-28 15:42:00,
2013-03-28 08:52:00,51.0,48.0,30.09,SSE,168,0.0,1.0,90,0.00,,,0.00,,2013-03-28 15:52:00,
2013-03-28 09:02:00,52.0,49.0,30.09,SSE,168,0.0,1.0,90,0.00,,,0.00,,2013-03-28 16:02:00,
2013-03-28 09:12:00,52.0,49.0,30.09,SSE,168,0.0,1.0,90,0.00,,,0.00,,2013-03-28 16:12:00,
2013-03-28 09:22:00,53.0,50.0,30.09,West,260,2.0,5.0,90,0.00,,,0.00,,2013-03-28 16:22:00,
2013-03-28 09:32:00,53.0,50.0,30.09,NW,313,0.0,2.0,90,0.00,,,0.00,,2013-03-28 16:32:00,
2013-03-28 09:41:00,53.0,50.0,30.09,NW,313,0.0,2.0,90,0.00,,,0.00,,2013-03-28 16:41:00,
2013-03-28 09:52:00,54.0,51.0,30.09,NW,313,0.0,1.0,90,0.00,,,0.00,,2013-03-28 16:52:00,
2013-03-28 10:02:00,54.0,51.0,30.09,North,11,1.0,2.0,89,0.00,,,0.00,,2013-03-28 17:02:00,
2013-03-28 10:12:00,54.0,51.0,30.09,North,11,1.0,2.0,89,0.00,,,0.00,,2013-03-28 17:12:00,
2013-03-28 10:22:00,55.0,51.0,30.09,NE,48,2.0,5.0,87,0.00,,,0.00,,2013-03-28 17:22:00,
2013-03-28 10:32:00,55.0,51.0,30.09,SW,218,3.0,5.0,85,0.00,,,0.00,,2013-03-28 17:32:00,
2013-03-28 10:42:00,55.0,51.0,30.09,SW,218,3.0,5.0,85,0.00,,,0.00,,2013-03-28 17:42:00,
2013-03-28 10:52:00,56.0,51.0,30.09,NE,51,1.0,4.0,84,0.00,,,0.00,,2013-03-28 17:52:00,
2013-03-28 11:02:00,57.0,52.0,30.09,NE,53,0.0,2.0,82,0.00,,,0.00,,2013-03-28 18:02:00,
2013-03-28 11:12:00,57.0,52.0,30.09,NE,53,0.0,2.0,82,0.00,,,0.00,,2013-03-28 18:12:00,
2013-03-28 11:22:00,58.0,52.0,30.09,ENE,58,1.0,5.0,81,0.00,,,0.00,,2013-03-28 18:22:00,
2013-03-28 11:31:00,58.0,52.0,30.09,NE,53,1.0,4.0,80,0.00,,,0.00,,2013-03-28 18:31:00,
2013-03-28 11:42:00,58.0,52.0,30.09,NE,53,1.0,4.0,80,0.00,,,0.00,,2013-03-28 18:42:00,
2013-03-28 11:52:00,59.0,52.0,30.09,SW,217,1.0,4.0,79,0.00,,,0.00,,2013-03-28 18:52:00,
2013-03-28 12:01:00,59.0,52.0,30.09,WSW,241,4.0,8.0,78,0.00,,,0.00,,2013-03-28 19:01:00,
2013-03-28 12:11:00,59.0,52.0,30.09,WSW,241,4.0,8.0,78,0.00,,,0.00,,2013-03-28 19:11:00,
2013-03-28 12:21:00,59.0,52.0,30.09,SE,130,2.0,6.0,79,0.00,,,0.00,,2013-03-28 19:21:00,
2013-03-28 12:42:00,60.0,53.0,30.09,NE,34,1.0,4.0,78,0.00,,,0.00,,2013-03-28 19:42:00,
2013-03-28 12:52:00,60.0,53.0,30.09,ENE,57,5.0,7.0,77,0.00,,,0.00,,2013-03-28 19:52:00,
2013-03-28 13:02:00,60.0,53.0,30.09,ENE,59,1.0,5.0,77,0.00,,,0.00,,2013-03-28 20:02:00,
2013-03-28 13:11:00,60.0,53.0,30.09,ENE,59,1.0,5.0,77,0.00,,,0.00,,2013-03-28 20:11:00,
2013-03-28 13:21:00,60.0,53.0,30.10,WSW,243,6.0,9.0,78,0.00,,,0.00,,2013-03-28 20:21:00,
2013-03-28 13:32:00,59.0,52.0,30.10,SW,227,1.0,8.0,79,0.00,,,0.00,,2013-03-28 20:32:00,
2013-03-28 13:42:00,59.0,52.0,30.10,SW,227,1.0,8.0,79,0.00,,,0.00,,2013-03-28 20:42:00,
2013-03-28 13:53:00,60.0,53.0,30.10,SW,235,2.0,8.0,78,0.00,,,0.00,,2013-03-28 20:53:00,
2013-03-28 14:11:00,61.0,54.0,30.10,North,355,1.0,6.0,77,0.00,,,0.00,,2013-03-28 21:11:00,
2013-03-28 14:22:00,61.0,53.0,30.10,NE,54,1.0,5.0,74,0.00,,,0.00,,2013-03-28 21:22:00,
2013-03-28 14:32:00,62.0,53.0,30.09,SE,128,0.0,5.0,72,0.00,,,0.00,,2013-03-28 21:32:00,
2013-03-28 14:42:00,62.0,53.0,30.09,SE,128,0.0,5.0,72,0.00,,,0.00,,2013-03-28 21:42:00,
2013-03-28 14:53:00,63.0,53.0,30.09,East,99,2.0,5.0,71,0.00,,,0.00,,2013-03-28 21:53:00,
2013-03-28 15:02:00,63.0,54.0,30.09,SW,235,1.0,5.0,72,0.00,,,0.00,,2013-03-28 22:02:00,
2013-03-28 15:12:00,63.0,54.0,30.09,SW,235,1.0,5.0,72,0.00,,,0.00,,2013-03-28 22:12:00,
2013-03-28 15:22:00,63.0,53.0,30.08,ENE,76,1.0,5.0,70,0.00,,,0.00,,2013-03-28 22:22:00,
2013-03-28 15:32:00,63.0,53.0,30.08,East,92,1.0,2.0,69,0.00,,,0.00,,2013-03-28 22:32:00,
2013-03-28 15:42:00,63.0,53.0,30.08,East,92,1.0,2.0,69,0.00,,,0.00,,2013-03-28 22:42:00,
2013-03-28 15:52:00,63.0,53.0,30.08,West,271,3.0,6.0,70,0.00,,,0.00,,2013-03-28 22:52:00,
2013-03-28 16:01:00,64.0,54.0,30.08,East,82,0.0,4.0,69,0.00,,,0.00,,2013-03-28 23:01:00,
2013-03-28 16:12:00,64.0,54.0,30.08,East,82,0.0,4.0,69,0.00,,,0.00,,2013-03-28 23:12:00,
2013-03-28 16:21:00,64.0,53.0,30.07,ESE,121,0.0,5.0,67,0.00,,,0.00,,2013-03-28 23:21:00,
2013-03-28 16:32:00,65.0,53.0,30.07,ESE,121,1.0,2.0,66,0.00,,,0.00,,2013-03-28 23:32:00,
2013-03-28 16:42:00,65.0,53.0,30.07,ESE,121,1.0,2.0,66,0.00,,,0.00,,2013-03-28 23:42:00,
2013-03-28 16:52:00,65.0,53.0,30.07,ENE,64,0.0,2.0,66,0.00,,,0.00,,2013-03-28 23:52:00,
2013-03-28 17:02:00,65.0,53.0,30.06,West,281,0.0,4.0,66,0.00,,,0.00,,2013-03-29 00:02:00,
2013-03-28 17:11:00,65.0,53.0,30.06,West,281,0.0,4.0,66,0.00,,,0.00,,2013-03-29 00:11:00,
2013-03-28 17:21:00,65.0,54.0,30.06,WNW,298,1.0,3.0,67,0.00,,,0.00,,2013-03-29 00:21:00,
2013-03-28 17:32:00,65.0,54.0,30.06,West,280,0.0,2.0,68,0.00,,,0.00,,2013-03-29 00:32:00,
2013-03-28 17:42:00,65.0,54.0,30.06,West,280,0.0,2.0,68,0.00,,,0.00,,2013-03-29 00:42:00,
2013-03-28 17:52:00,63.0,53.0,30.06,West,280,1.0,2.0,71,0.00,,,0.00,,2013-03-29 00:52:00,
2013-03-28 18:02:00,62.0,54.0,30.06,West,280,0.0,3.0,75,0.00,,,0.00,,2013-03-29 01:02:00,
2013-03-28 18:11:00,62.0,54.0,30.06,West,280,0.0,3.0,75,0.00,,,0.00,,2013-03-29 01:11:00,
2013-03-28 18:22:00,62.0,54.0,30.07,NW,316,0.0,4.0,75,0.00,,,0.00,,2013-03-29 01:22:00,
2013-03-28 18:31:00,62.0,54.0,30.08,SW,231,1.0,4.0,75,0.00,,,0.00,,2013-03-29 01:31:00,
2013-03-28 18:42:00,62.0,54.0,30.08,SW,231,1.0,4.0,75,0.00,,,0.00,,2013-03-29 01:42:00,
2013-03-28 18:52:00,61.0,54.0,30.08,SW,233,0.0,5.0,77,0.00,,,0.00,,2013-03-29 01:52:00,
2013-03-28 19:02:00,61.0,54.0,30.07,SW,233,0.0,1.0,78,0.00,,,0.00,,2013-03-29 02:02:00,
2013-03-28 19:11:00,61.0,54.0,30.07,SW,233,0.0,1.0,78,0.00,,,0.00,,2013-03-29 02:11:00,
2013-03-28 19:21:00,60.0,53.0,30.08,SW,234,2.0,4.0,79,0.00,,,0.00,,2013-03-29 02:21:00,
2013-03-28 19:32:00,58.0,52.0,30.08,SW,228,2.0,4.0,80,0.00,,,0.00,,2013-03-29 02:32:00,
2013-03-28 19:41:00,58.0,52.0,30.08,SW,228,2.0,4.0,80,0.00,,,0.00,,2013-03-29 02:41:00,
2013-03-28 19:52:00,57.0,52.0,30.08,SW,228,2.0,3.0,82,0.00,,,0.00,,2013-03-29 02:52:00,
2013-03-28 20:01:00,56.0,51.0,30.09,WSW,242,1.0,4.0,82,0.00,,,0.00,,2013-03-29 03:01:00,
2013-03-28 20:11:00,56.0,51.0,30.09,WSW,242,1.0,4.0,82,0.00,,,0.00,,2013-03-29 03:11:00,
2013-03-28 20:21:00,55.0,50.0,30.09,WSW,242,0.0,2.0,83,0.00,,,0.00,,2013-03-29 03:21:00,
2013-03-28 20:32:00,54.0,50.0,30.09,WSW,242,0.0,2.0,85,0.00,,,0.00,,2013-03-29 03:32:00,
2013-03-28 20:42:00,54.0,50.0,30.09,WSW,242,0.0,2.0,85,0.00,,,0.00,,2013-03-29 03:42:00,
2013-03-28 20:53:00,53.0,49.0,30.09,WSW,242,0.0,1.0,85,0.00,,,0.00,,2013-03-29 03:53:00,
2013-03-28 21:02:00,52.0,48.0,30.10,WSW,242,0.0,2.0,86,0.00,,,0.00,,2013-03-29 04:02:00,
2013-03-28 21:12:00,52.0,48.0,30.10,WSW,242,0.0,2.0,86,0.00,,,0.00,,2013-03-29 04:12:00,
2013-03-28 21:22:00,52.0,48.0,30.11,WSW,242,0.0,2.0,86,0.00,,,0.00,,2013-03-29 04:22:00,
2013-03-28 21:32:00,51.0,47.0,30.10,WSW,242,0.0,1.0,86,0.00,,,0.00,,2013-03-29 04:32:00,
2013-03-28 21:42:00,51.0,47.0,30.10,WSW,242,0.0,1.0,86,0.00,,,0.00,,2013-03-29 04:42:00,
2013-03-28 21:52:00,51.0,47.0,30.11,WSW,242,1.0,2.0,87,0.00,,,0.00,,2013-03-29 04:52:00,
2013-03-28 22:02:00,50.0,46.0,30.11,WSW,242,1.0,2.0,87,0.00,,,0.00,,2013-03-29 05:02:00,
2013-03-28 22:12:00,50.0,46.0,30.11,WSW,242,1.0,2.0,87,0.00,,,0.00,,2013-03-29 05:12:00,
2013-03-28 22:22:00,50.0,47.0,30.11,WSW,242,2.0,3.0,88,0.00,,,0.00,,2013-03-29 05:22:00,
2013-03-28 22:32:00,50.0,47.0,30.11,WSW,242,0.0,3.0,88,0.00,,,0.00,,2013-03-29 05:32:00,
2013-03-28 22:42:00,50.0,47.0,30.11,WSW,242,0.0,3.0,88,0.00,,,0.00,,2013-03-29 05:42:00,
2013-03-28 22:52:00,50.0,47.0,30.11,WSW,242,0.0,0.0,88,0.00,,,0.00,,2013-03-29 05:52:00,
2013-03-28 23:01:00,50.0,47.0,30.11,WSW,242,1.0,1.0,88,0.00,,,0.00,,2013-03-29 06:01:00,
2013-03-28 23:12:00,50.0,47.0,30.11,WSW,242,1.0,1.0,88,0.00,,,0.00,,2013-03-29 06:12:00,
2013-03-28 23:22:00,50.0,47.0,30.12,WSW,242,0.0,1.0,88,0.00,,,0.00,,2013-03-29 06:22:00,
2013-03-28 23:32:00,49.0,46.0,30.12,WSW,242,0.0,0.0,88,0.00,,,0.00,,2013-03-29 06:32:00,
2013-03-28 23:42:00,49.0,46.0,30.12,WSW,242,0.0,0.0,88,0.00,,,0.00,,2013-03-29 06:42:00,
2013-03-28 23:52:00,49.0,46.0,30.11,WSW,242,0.0,0.0,88,0.00,,,0.00,,2013-03-29 06:52:00,